User: anonymous
Location: Chenango Forks
(42.2242°N, 75.8278°W)
Time: 22:12:23
(UTC-04:00)
Language:

Coronas F rocket - Orbit

View from above orbital plane
View from above orbital plane
View from above satellite
View from above satellite

Ground track
Ground track

The orbit data is extracted from the following two-line orbital elements,

1 26874U 01032B   14292.77560949  .00021473  00000-0  31613-3 0  8272
2 26874 082.4738 212.5335 0012284 326.0581 033.9886 15.55195744740648
Epoch (UTC): 19 October 2014 18:36:52
Eccentricity: 0.0012284
inclination: 82.4738°
perigee height: 393 km
apogee height: 410 km
right ascension of ascending node: 212.5335°
argument of perigee: 326.0581°
revolutions per day: 15.55195744
mean anomaly at epoch: 33.9886°
orbit number at epoch: 74064

The dashed part of the orbit path shows where the satellite is in the earth's shadow,  

DLR